Regional Weather Roundup
Issued by NWS

Home | Current Version | Previous Version | Text Only | Print | Product List | Glossary Off
Versions: 1 2 3 4 5 6 7 8 9 10 11 12 13 14 15 16 17 18 19 20 21 22 23 24 25 26 27 28 29 30 31 32 33 34 35 36 37 38 39 40 41 42 43 44 45 46 47 48 49 50

000
ASUS43 KLOT 282106
RWRIL

ILLINOIS REGIONAL WEATHER ROUNDUP
NATIONAL WEATHER SERVICE CHICAGO/ROMEOVILLE IL
400 PM CDT THU AUG 28 2014

NOTE: "FAIR" INDICATES FEW OR NO CLOUDS BELOW 12,000 FEET WITH NO
SIGNIFICANT WEATHER AND/OR OBSTRUCTIONS TO VISIBILITY.

* THESE STATIONS ARE NOT UNDER NWS QUALITY CONTROL. THEY ALSO MAY NOT
  REPORT WEATHER SUCH AS PRECIPITATION OR FOG.

ILZ001-002-007-009-015-016-024-282200-
NORTHWEST ILLINOIS

CITY           SKY/WX    TMP DP  RH WIND       PRES   REMARKS
MOLINE         TSTM      68  66  93 N5        30.06R VSB 3/4
STERLING*      CLOUDY    73  64  73 E8        30.04S
SAVANNA*       RAIN      73  65  75 E5        30.02F
$$

ILZ003-004-008-010-011-017-018-282200-
NORTH CENTRAL ILLINOIS

CITY           SKY/WX    TMP DP  RH WIND       PRES   REMARKS
ROCKFORD       CLOUDY    74  59  59 E8        30.06F
FREEPORT*      CLOUDY    73  64  75 E8        30.07S
ROCHELLE*      CLOUDY    76  60  58 E3        30.06S
DE KALB*       PTSUNNY   75  58  55 SE8       30.07S
PERU*          PTSUNNY   77  65  66 E7        30.04S
$$

ILZ005-006-012>014-019>023-282200-
NORTHEAST ILLINOIS

CITY           SKY/WX    TMP DP  RH WIND       PRES   REMARKS
CHICAGO-OHARE  PTSUNNY   74  56  53 NE10      30.07F
CHICAGO-MIDWAY PTSUNNY   76  60  57 NE9       30.06F
AURORA         MOSUNNY   80  58  46 SE8       30.05F HX  80
LANSING*       MOSUNNY   76  63  63 NE8       30.06F
JOLIET*        SUNNY     80  61  52 E8        30.05F HX  81
WAUKEGAN       PTSUNNY   70  57  63 E13       30.09F
DUPAGE AIRPORT MOSUNNY   79  57  46 E9        30.06S HX  80
KANKAKEE*      MOSUNNY   80  62  54 E6        30.05F HX  81
WHEELING       PTSUNNY   72  58  61 NE10      30.09F
MORRIS*        MOSUNNY   80  64  58 E7        30.04F HX  82
ROMEOVILLE*    SUNNY     80  60  51 E7        30.05F HX  81
NORTHERLY ISL    N/A     71  61  70 NE12        N/A
$$

LMZ740>746-282200-
SOUTHERN LAKE MICHIGAN

STATION/POSITION SKY/WX   TEMP    WIND        PRES    VSBY  WAVE
                          AIR SEA DIR/SP/G                  HT/PER
                          (F)     (DEG/KT/KT) (MB)    (MI)  (FT/S)
SOUTHERN BUOY              68 69   50/ 10/ 12 1019.2F
WAUKEGAN HARBOR            68      60/  9/ 11   N/A
HARRISON CRIB              68      40/ 11/ 13   N/A
BURNHAM HARBOR             71      30/  9/ 12   N/A
CALUMET HARBOR             72      20/  8/ 11 1017.1F
MICHIGAN CITY              70      10/ 12/ 14   N/A
MICHIGAN CITY 6N           71 73   30/ 10/ 12   N/A           2/ 4
ST. JOSEPH                 71 73   20/ 12/ 16   N/A           2/ 2
$$

ILZ025>027-034>036-040-047-049-050-058-095>099-282200-
WEST-CENTRAL ILLINOIS

CITY           SKY/WX    TMP DP  RH WIND       PRES   REMARKS
QUINCY         PTSUNNY   87  72  60 S7        29.96F HX  93
GALESBURG*     CLOUDY    78  70  76 E7        30.00R HX  80
MACOMB*        PTSUNNY   82  74  78 SE3       30.00R HX  88
JACKSONVILLE*  MOSUNNY   89  74  62 S5        29.98S HX  98
PITTSFIELD*    MOSUNNY   89  73  57 S7        29.96F HX  96
$$

ILZ028>032-037-038-041>044-048-051>054-059>061-282200-
CENTRAL ILLINOIS

CITY           SKY/WX    TMP DP  RH WIND       PRES   REMARKS
PONTIAC        MOSUNNY   81  68  65 E6        30.03F HX  83
DECATUR        MOSUNNY   86  72  62 E6        30.00F HX  92
PEORIA         MOSUNNY   85  71  63 E8        30.00F HX  90
LACON*         PTSUNNY   79  66  64 E9        30.01S HX  81
LINCOLN*       MOSUNNY   87  72  59 SE5       29.96S HX  93
SPRINGFIELD    PTSUNNY   86  73  65 E9        29.97F HX  93
TAYLORVILLE    MOSUNNY  N/A N/A N/A S6        29.98F
$$

ILZ033-039-045-046-055>057-062-063-282200-
EAST-CENTRAL ILLINOIS

CITY           SKY/WX    TMP DP  RH WIND       PRES   REMARKS
CHAMPAIGN      SUNNY     83  69  62 E7        30.02F HX  86
DANVILLE*      SUNNY     82  64  55 SE5       30.00F HX  84
RANTOUL*       MOSUNNY   85  65  51 E7        30.03F HX  87
MATTOON        MOSUNNY   86  71  60 VRB5      29.99F HX  91
PARIS*         SUNNY     84  67  57 CALM      30.02F HX  86
$$

ILZ079-100>102-282200-
SOUTHWEST ILLINOIS

CITY           SKY/WX    TMP DP  RH WIND       PRES   REMARKS
BELLEVILLE     SUNNY     90  76  61 SE5       29.95F HX 101
CAHOKIA*       MOSUNNY   91  73  55 SE7       29.94F HX 100
SPARTA*        MOSUNNY   88  74  62 CALM      29.97F HX  96
$$

ILZ064>066-069>071-074>076-080>082-084>086-088>090-092>094-282200-
SOUTH-CENTRAL ILLINOIS

CITY           SKY/WX    TMP DP  RH WIND       PRES   REMARKS
CARBONDALE     TSTM      77  72  84 NE10      29.98F
CAIRO*         PTSUNNY   83  70  64 S16       29.98R THUNDER HX  88
EFFINGHAM*     SUNNY     88  69  53 E6        29.99F HX  92
MARION         PTSUNNY   75  73  94 NE9       30.00F
MT. VERNON     MOSUNNY   88  73  62 SE5       29.99S HX  96
SALEM*         PTSUNNY   85  77  77 NE6       29.99S HX  96
METROPOLIS*      N/A     78  72  81 SW9       29.98R THUNDER HX  80
$$

ILZ067-068-072-073-078-083-087-091-282200-
SOUTHEAST ILLINOIS

CITY           SKY/WX    TMP DP  RH WIND       PRES   REMARKS
LAWRENCEVILLE  SUNNY     89  72  56 VRB5      29.99F HX  96
FLORA*         SUNNY     89  72  56 E5        29.98F HX  96
FAIRFIELD*     MOSUNNY   88  79  74 NE3       29.98S HX 102
HARRISBURG*    TSTM      72  72 100 N6        30.01F
ROBINSON*      MOSUNNY   87  73  62 CALM      30.01S HX  95
CARMI*         MOSUNNY   88  77  69 SE5       29.98S HX  99
$$

ABBREVIATIONS USED IN REMARKS
   TC - TEMPERATURE IN CELSIUS
  WCI - WIND CHILL INDEX
   HX - HEAT INDEX
  VSB - VISIBILITY
$$




USA.gov is the U.S. government's official web portal to all federal, state and local government web resources and services.